Simultaneous Nadir Overpasses (SNOs) Predictions

Prediction of SNOs between AQUA and METOP-A Satellite Orbit:

Table of predicted SNOs for the next 14.0 days since TLE Epoch: 7/24/2020
Index Date (AQUA) Time (AQUA) Lat,Lon (AQUA) SZA (AQUA ) Date (METOP-A) Time (METOP-A) Lat,Lon (METOP-A) SZA (METOP-A ) Distance(km) Time Diff (sec)
1 07/25/2020 10:53:41 76.43, 4.03 57.32 07/25/2020 10:53:02 76.43, 4.18 57.32 3.72 39
2 07/25/2020 11:43:07 -76.45, 171.61 122.65 07/25/2020 11:43:43 -76.45, 171.57 122.66 0.94 36
3 07/28/2020 06:27:56 76.41, 70.53 57.93 07/28/2020 06:27:24 76.40, 70.42 57.94 3.12 32
4 07/28/2020 07:17:23 -76.48,-122.05 121.98 07/28/2020 07:18:04 -76.47,-122.01 122.00 1.65 41
5 07/31/2020 02:02:12 76.44, 136.86 58.65 07/31/2020 02:01:45 76.41, 136.83 58.63 3.47 27
6 07/31/2020 02:51:38 -76.46, -55.56 121.32 07/31/2020 02:52:25 -76.48, -55.59 121.31 2.64 47
7 08/02/2020 21:36:26 76.43,-156.67 59.35 08/02/2020 21:36:05 76.42,-156.77 59.36 2.85 21
8 08/02/2020 22:25:53 -76.50, 10.75 120.57 08/02/2020 22:26:45 -76.50, 10.82 120.58 1.90 52
9 08/05/2020 16:21:03 -75.91, 103.78 120.51 08/05/2020 16:19:58 -75.89, 100.45 120.29 90.16 65
10 08/05/2020 17:10:42 76.47, -90.37 60.15 08/05/2020 17:10:25 76.48, -90.22 60.15 4.15 17
